,,Stat6,,Stat2,,Stat8,,Stat9,,Stat10,,Wind1,,Wind1,
time,status,PA1M_AVG,status,PR1M_SUM,status,RH1M_AVG,status,SR1M_AVG,status,TA1M_AVG,status,W1dAve1m,status,W1sAve1m,
2009-07-23, 00:00:00,VALID,918.317,VALID,0,VALID,100,VALID,-0.152827,VALID,20.3673,VALID,62,VALID,0,
2009-07-23, 00:01:00,VALID,918.281,VALID,0,VALID,100,VALID,-0.152827,VALID,20.3511,VALID,56,VALID,0.257626,
2009-07-23, 00:02:00,VALID,918.259,VALID,0,VALID,100,VALID,-0.135847,VALID,20.3214,VALID,35,VALID,1.06587,
2009-07-23, 00:03:00,VALID,918.284,VALID,0,VALID,100,VALID,-0.118866,VALID,20.2832,VALID,18,VALID,0.786776,
2009-07-23, 00:04:00,VALID,918.28,VALID,0,VALID,100,VALID,-0.118866,VALID,20.2378,VALID,22,VALID,0.777616,
2009-07-23, 00:05:00,VALID,918.293,VALID,0,VALID,100,VALID,-0.118866,VALID,20.1916,VALID,18,VALID,0.0174851,
2009-07-23, 00:06:00,VALID,918.299,VALID,0,VALID,100,VALID,-0.101885,VALID,20.1853,VALID,18,VALID,0,
2009-07-23, 00:07:00,VALID,918.316,VALID,0,VALID,100,VALID,-0.152827,VALID,20.1856,VALID,36,VALID,0.324113,
2009-07-23, 00:08:00,VALID,918.316,VALID,0,VALID,100,VALID,-0.135847,VALID,20.1983,VALID,38,VALID,0.166061,
2009-07-23, 00:09:00,VALID,918.337,VALID,0,VALID,100,VALID,-0.152827,VALID,20.2078,VALID,51,VALID,0.460938,
2009-07-23, 00:10:00,VALID,918.362,VALID,0,VALID,100,VALID,-0.101885,VALID,20.2278,VALID,63,VALID,0.215216,
2009-07-23, 00:11:00,VALID,918.345,VALID,0,VALID,100,VALID,-0.135847,VALID,20.2143,VALID,59,VALID,0.109375,
2009-07-23, 00:12:00,VALID,918.346,VALID,0,VALID,100,VALID,-0.101885,VALID,20.2275,VALID,48,VALID,0.691134,
2009-07-23, 00:13:00,VALID,918.306,VALID,0,VALID,100,VALID,-0.0849042,VALID,20.2105,VALID,53,VALID,0.583394,
2009-07-23, 00:14:00,VALID,918.307,VALID,0,VALID,100,VALID,-0.135847,VALID,20.1721,VALID,76,VALID,0.230569,
2009-07-23, 00:15:00,VALID,918.256,VALID,0,VALID,100,VALID,-0.135847,VALID,20.1661,VALID,74,VALID,0.59484,
2009-07-23, 00:16:00,VALID,918.243,VALID,0,VALID,100,VALID,-0.101885,VALID,20.1556,VALID,45,VALID,0.409226,
2009-07-23, 00:17:00,VALID,918.232,VALID,0,VALID,100,VALID,-0.101885,VALID,20.1262,VALID,52,VALID,0.0261628,
2009-07-23, 00:18:00,VALID,918.216,VALID,0,VALID,100,VALID,-0.118866,VALID,20.1202,VALID,52,VALID,0,
2009-07-23, 00:19:00,VALID,918.193,VALID,0,VALID,100,VALID,-0.152827,VALID,20.1269,VALID,52,VALID,0.00102796,
2009-07-23, 00:20:00,VALID,918.174,VALID,0,VALID,100,VALID,-0.118866,VALID,20.1302,VALID,52,VALID,0,
2009-07-23, 00:21:00,VALID,918.168,VALID,0,VALID,100,VALID,-0.118866,VALID,20.1234,VALID,52,VALID,0,
2009-07-23, 00:22:00,VALID,918.184,VALID,0,VALID,100,VALID,-0.135847,VALID,20.1169,VALID,52,VALID,0,
2009-07-23, 00:23:00,VALID,918.183,VALID,0,VALID,100,VALID,-0.118866,VALID,20.101,VALID,52,VALID,0,
2009-07-23, 00:24:00,VALID,918.186,VALID,0,VALID,100,VALID,-0.135847,VALID,20.0845,VALID,52,VALID,0,
2009-07-23, 00:25:00,VALID,918.188,VALID,0,VALID,100,VALID,-0.118866,VALID,20.0618,VALID,52,VALID,0,
2009-07-23, 00:26:00,VALID,918.174,VALID,0,VALID,100,VALID,-0.118866,VALID,20.0293,VALID,46,VALID,0.617914,
2009-07-23, 00:27:00,VALID,918.181,VALID,0,VALID,100,VALID,-0.0509425,VALID,19.9993,VALID,17,VALID,0.416602,
2009-07-23, 00:28:00,VALID,918.157,VALID,0,VALID,100,VALID,-0.0509425,VALID,19.9861,VALID,38,VALID,0.471007,
2009-07-23, 00:29:00,VALID,918.164,VALID,0,VALID,100,VALID,0,VALID,19.9856,VALID,49,VALID,0.129883,
2009-07-23, 00:30:00,VALID,918.136,VALID,0,VALID,100,VALID,-0.0509425,VALID,19.9888,VALID,49,VALID,0.0012429,
2009-07-23, 00:31:00,VALID,918.125,VALID,0,VALID,100,VALID,0,VALID,20.031,VALID,52,VALID,0.195313,
2009-07-23, 00:32:00,VALID,918.107,VALID,0,VALID,100,VALID,-0.0509425,VALID,20.0473,VALID,59,VALID,0.191493,
2009-07-23, 00:33:00,VALID,918.093,VALID,0,VALID,100,VALID,-0.0169808,VALID,20.0473,VALID,59,VALID,0,
2009-07-23, 00:34:00,VALID,918.072,VALID,0,VALID,100,VALID,-0.0339617,VALID,20.0505,VALID,59,VALID,0,
2009-07-23, 00:35:00,VALID,918.039,VALID,0,VALID,100,VALID,-0.0339617,VALID,20.0348,VALID,37,VALID,0.698438,
2009-07-23, 00:36:00,VALID,918.03,VALID,0,VALID,100,VALID,-0.0509425,VALID,19.9432,VALID,32,VALID,0.60332,
2009-07-23, 00:37:00,VALID,918.033,VALID,0,VALID,100,VALID,0,VALID,19.9332,VALID,32,VALID,0.0516387,
2009-07-23, 00:38:00,VALID,918.026,VALID,0,VALID,100,VALID,-0.0339617,VALID,19.9469,VALID,32,VALID,0,
2009-07-23, 00:39:00,VALID,918.026,VALID,0,VALID,100,VALID,-0.0509425,VALID,19.9367,VALID,32,VALID,0,
2009-07-23, 00:40:00,VALID,918.039,VALID,0,VALID,100,VALID,-0.0169808,VALID,19.9337,VALID,32,VALID,0,
2009-07-23, 00:41:00,VALID,918.046,VALID,0,VALID,100,VALID,-0.0339617,VALID,19.917,VALID,32,VALID,0,
2009-07-23, 00:42:00,VALID,918.025,VALID,0,VALID,100,VALID,-0.0679233,VALID,19.9242,VALID,35,VALID,0,
2009-07-23, 00:43:00,VALID,918.017,VALID,0,VALID,100,VALID,-0.0509425,VALID,19.9207,VALID,41,VALID,0,
2009-07-23, 00:44:00,VALID,918.009,VALID,0,VALID,100,VALID,-0.0339617,VALID,19.9269,VALID,41,VALID,0,
2009-07-23, 00:45:00,VALID,918.002,VALID,0,VALID,100,VALID,-0.0339617,VALID,19.9399,VALID,64,VALID,0.00853924,
2009-07-23, 00:46:00,VALID,917.992,VALID,0,VALID,100,VALID,-0.0169808,VALID,19.9659,VALID,147,VALID,0.475836,
2009-07-23, 00:47:00,VALID,917.984,VALID,0,VALID,100,VALID,-0.0169808,VALID,19.9829,VALID,148,VALID,0.0228659,
2009-07-23, 00:48:00,VALID,917.976,VALID,0,VALID,100,VALID,-0.0679233,VALID,19.9531,VALID,147,VALID,0,
2009-07-23, 00:49:00,VALID,917.993,VALID,0,VALID,100,VALID,-0.0169808,VALID,19.9269,VALID,147,VALID,0,
2009-07-23, 00:50:00,VALID,917.994,VALID,0,VALID,100,VALID,-0.0169808,VALID,19.885,VALID,147,VALID,0,
2009-07-23, 00:51:00,VALID,917.971,VALID,0,VALID,100,VALID,-0.0509425,VALID,19.8528,VALID,147,VALID,0,
2009-07-23, 00:52:01,VALID,917.948,VALID,0,VALID,100,VALID,-0.0339617,VALID,19.8166,VALID,147,VALID,0,
2009-07-23, 00:53:00,VALID,917.94,VALID,0,VALID,100,VALID,0,VALID,19.8199,VALID,147,VALID,0,
2009-07-23, 00:54:00,VALID,917.931,VALID,0,VALID,100,VALID,-0.0339617,VALID,19.7902,VALID,147,VALID,0,
2009-07-23, 00:55:00,VALID,917.92,VALID,0,VALID,100,VALID,-0.0169808,VALID,19.8139,VALID,110,VALID,0,
2009-07-23, 00:56:00,VALID,917.9,VALID,0,VALID,100,VALID,-0.0339617,VALID,19.8074,VALID,30,VALID,0,
2009-07-23, 00:57:00,VALID,917.904,VALID,0,VALID,100,VALID,-0.0169808,VALID,19.8326,VALID,30,VALID,0,
2009-07-23, 00:58:00,VALID,917.897,VALID,0,VALID,100,VALID,-0.0679233,VALID,19.7874,VALID,340,VALID,0.231836,
2009-07-23, 00:59:00,VALID,917.875,VALID,0,VALID,100,VALID,0,VALID,19.7617,VALID,204,VALID,0.65253,
2009-07-23, 01:00:01,VALID,917.858,VALID,0,VALID,100,VALID,-0.0169808,VALID,19.7874,VALID,201,VALID,0.441311,
2009-07-23, 01:01:00,VALID,917.858,VALID,0,VALID,100,VALID,-0.0509425,VALID,19.7907,VALID,201,VALID,0.0543064,
2009-07-23, 01:02:00,VALID,917.873,VALID,0,VALID,100,VALID,-0.0169808,VALID,19.8101,VALID,201,VALID,0,
2009-07-23, 01:03:01,VALID,917.873,VALID,0,VALID,100,VALID,-0.0509425,VALID,19.8715,VALID,201,VALID,0,
2009-07-23, 01:04:00,VALID,917.902,VALID,0,VALID,100,VALID,-0.0509425,VALID,19.8458,VALID,201,VALID,0,
2009-07-23, 01:05:00,VALID,917.931,VALID,0,VALID,100,VALID,-0.0169808,VALID,19.7742,VALID,201,VALID,0,
2009-07-23, 01:06:00,VALID,917.94,VALID,0,VALID,100,VALID,-0.0509425,VALID,19.7844,VALID,201,VALID,0,
2009-07-23, 01:07:01,VALID,917.924,VALID,0,VALID,100,VALID,-0.0509425,VALID,19.7777,VALID,201,VALID,0,
2009-07-23, 01:08:00,VALID,917.9,VALID,0,VALID,100,VALID,-0.0339617,VALID,19.7877,VALID,201,VALID,0,
2009-07-23, 01:09:00,VALID,917.875,VALID,0,VALID,100,VALID,-0.0509425,VALID,19.7682,VALID,201,VALID,0,
2009-07-23, 01:10:00,VALID,917.855,VALID,0,VALID,100,VALID,0,VALID,19.7515,VALID,310,VALID,0.375182,
2009-07-23, 01:11:01,VALID,917.845,VALID,0,VALID,100,VALID,-0.0509425,VALID,19.7387,VALID,9,VALID,0.441964,
2009-07-23, 01:12:01,VALID,917.817,VALID,0,VALID,100,VALID,-0.0339617,VALID,19.748,VALID,24,VALID,0.181686,
2009-07-23, 01:13:01,VALID,917.807,VALID,0,VALID,100,VALID,-0.0169808,VALID,19.7677,VALID,45,VALID,0,
2009-07-23, 01:14:00,VALID,917.812,VALID,0,VALID,100,VALID,0,VALID,19.7742,VALID,45,VALID,0,
2009-07-23, 01:15:00,VALID,917.798,VALID,0,VALID,100,VALID,-0.0339617,VALID,19.7934,VALID,45,VALID,0,
2009-07-23, 01:16:00,VALID,917.767,VALID,0,VALID,100,VALID,-0.0169808,VALID,19.8261,VALID,45,VALID,0,
2009-07-23, 01:17:00,VALID,917.738,VALID,0,VALID,100,VALID,-0.0339617,VALID,19.8521,VALID,44,VALID,0.156432,
2009-07-23, 01:18:01,VALID,917.732,VALID,0,VALID,100,VALID,-0.0339617,VALID,19.885,VALID,43,VALID,0.0816761,
2009-07-23, 01:19:00,VALID,917.735,VALID,0,VALID,100,VALID,-0.0509425,VALID,19.8623,VALID,43,VALID,0,
2009-07-23, 01:20:00,VALID,917.736,VALID,0,VALID,100,VALID,-0.0339617,VALID,19.8458,VALID,43,VALID,0,
2009-07-23, 01:21:01,VALID,917.731,VALID,0,VALID,100,VALID,0.0169808,VALID,19.865,VALID,43,VALID,0,
2009-07-23, 01:22:00,VALID,917.734,VALID,0,VALID,100,VALID,-0.0339617,VALID,19.901,VALID,43,VALID,0,
2009-07-23, 01:23:00,VALID,917.739,VALID,0,VALID,100,VALID,0,VALID,19.9072,VALID,43,VALID,0,
2009-07-23, 01:24:00,VALID,917.737,VALID,0,VALID,100,VALID,-0.0339617,VALID,19.894,VALID,38,VALID,0.405342,
2009-07-23, 01:25:01,VALID,917.713,VALID,0,VALID,100,VALID,-0.0339617,VALID,19.8431,VALID,35,VALID,0.659624,
2009-07-23, 01:26:00,VALID,917.691,VALID,0,VALID,100,VALID,0,VALID,19.8099,VALID,33,VALID,0.983285,
2009-07-23, 01:27:01,VALID,917.668,VALID,0,VALID,100,VALID,-0.0339617,VALID,19.7912,VALID,38,VALID,0.913681,
2009-07-23, 01:28:00,VALID,917.662,VALID,0,VALID,100,VALID,-0.0339617,VALID,19.7981,VALID,46,VALID,0.333651,
2009-07-23, 01:29:01,VALID,917.673,VALID,0,VALID,100,VALID,-0.0679233,VALID,19.8014,VALID,46,VALID,0,
2009-07-23, 01:30:01,VALID,917.66,VALID,0,VALID,100,VALID,-0.0849042,VALID,19.8079,VALID,46,VALID,0,
2009-07-23, 01:31:01,VALID,917.645,VALID,0,VALID,100,VALID,-0.0339617,VALID,19.8338,VALID,46,VALID,0,
2009-07-23, 01:32:00,VALID,917.632,VALID,0,VALID,100,VALID,-0.0339617,VALID,19.8338,VALID,81,VALID,0,
2009-07-23, 01:33:01,VALID,917.608,VALID,0,VALID,100,VALID,-0.0509425,VALID,19.8141,VALID,79,VALID,0,
2009-07-23, 01:34:01,VALID,917.609,VALID,0,VALID,100,VALID,-0.0509425,VALID,19.7952,VALID,61,VALID,0.0124199,
2009-07-23, 01:35:01,VALID,917.587,VALID,0,VALID,100,VALID,-0.0849042,VALID,19.7884,VALID,61,VALID,0.425872,
2009-07-23, 01:36:01,VALID,917.576,VALID,0,VALID,100,VALID,-0.0679233,VALID,19.7532,VALID,61,VALID,0.351744,
2009-07-23, 01:37:01,VALID,917.562,VALID,0,VALID,100,VALID,-0.0169808,VALID,19.756,VALID,61,VALID,0.082919,
2009-07-23, 01:38:01,VALID,917.551,VALID,0,VALID,100,VALID,-0.0679233,VALID,19.7884,VALID,54,VALID,0,
2009-07-23, 01:39:01,VALID,917.546,VALID,0,VALID,100,VALID,-0.118866,VALID,19.8149,VALID,50,VALID,0,
2009-07-23, 01:40:00,VALID,917.512,VALID,0,VALID,100,VALID,-0.0679233,VALID,19.8209,VALID,51,VALID,0,
2009-07-23, 01:41:01,VALID,917.505,VALID,0,VALID,100,VALID,-0.0679233,VALID,19.7752,VALID,57,VALID,0,
2009-07-23, 01:42:01,VALID,917.505,VALID,0,VALID,100,VALID,-0.0339617,VALID,19.7719,VALID,57,VALID,0,
2009-07-23, 01:43:01,VALID,917.525,VALID,0,VALID,100,VALID,-0.0509425,VALID,19.7819,VALID,57,VALID,0,
2009-07-23, 01:44:01,VALID,917.547,VALID,0,VALID,100,VALID,-0.0339617,VALID,19.753,VALID,57,VALID,0,
2009-07-23, 01:45:01,VALID,917.561,VALID,0,VALID,100,VALID,-0.0679233,VALID,19.7435,VALID,57,VALID,0,
2009-07-23, 01:46:01,VALID,917.608,VALID,0,VALID,100,VALID,-0.0679233,VALID,19.743,VALID,57,VALID,0,
2009-07-23, 01:47:00,VALID,917.634,VALID,0,VALID,100,VALID,-0.0849042,VALID,19.743,VALID,57,VALID,0,
2009-07-23, 01:48:00,VALID,917.656,VALID,0,VALID,100,VALID,-0.0509425,VALID,19.7335,VALID,57,VALID,0,
2009-07-23, 01:49:00,VALID,917.657,VALID,0,VALID,100,VALID,-0.0679233,VALID,19.6911,VALID,57,VALID,0,
2009-07-23, 01:50:00,VALID,917.663,VALID,0,VALID,100,VALID,-0.0679233,VALID,19.6519,VALID,57,VALID,0,
2009-07-23, 01:51:00,VALID,917.627,VALID,0,VALID,100,VALID,-0.0849042,VALID,19.6327,VALID,57,VALID,0,
2009-07-23, 01:52:00,VALID,917.59,VALID,0,VALID,100,VALID,-0.0679233,VALID,19.6,VALID,57,VALID,0,
2009-07-23, 01:53:00,VALID,917.583,VALID,0,VALID,100,VALID,-0.0509425,VALID,19.5905,VALID,57,VALID,0,
2009-07-23, 01:54:00,VALID,917.583,VALID,0,VALID,100,VALID,-0.0509425,VALID,19.5548,VALID,43,VALID,0,
2009-07-23, 01:55:00,VALID,917.595,VALID,0,VALID,100,VALID,-0.0509425,VALID,19.5453,VALID,40,VALID,0,
2009-07-23, 01:56:00,VALID,917.61,VALID,0,VALID,100,VALID,-0.0339617,VALID,19.5391,VALID,40,VALID,0,
2009-07-23, 01:57:00,VALID,917.62,VALID,0,VALID,100,VALID,-0.0679233,VALID,19.5483,VALID,63,VALID,0,
2009-07-23, 01:58:00,VALID,917.62,VALID,0,VALID,100,VALID,-0.0679233,VALID,19.6169,VALID,72,VALID,0.382999,
2009-07-23, 01:59:00,VALID,917.625,VALID,0,VALID,100,VALID,-0.0679233,VALID,19.743,VALID,26,VALID,0.581745,
2009-07-23, 02:00:00,VALID,917.606,VALID,0,VALID,100,VALID,-0.0849042,VALID,19.7659,VALID,25,VALID,0.809048,
2009-07-23, 02:01:00,VALID,917.588,VALID,0,VALID,100,VALID,-0.0509425,VALID,19.7787,VALID,18,VALID,0.994186,
2009-07-23, 02:02:00,VALID,917.597,VALID,0,VALID,100,VALID,-0.0509425,VALID,19.7819,VALID,18,VALID,1.17873,
2009-07-23, 02:03:00,VALID,917.585,VALID,0,VALID,100,VALID,-0.0339617,VALID,19.8368,VALID,23,VALID,1.13554,
2009-07-23, 02:04:00,VALID,917.578,VALID,0,VALID,100,VALID,-0.0849042,VALID,19.8633,VALID,23,VALID,1.02415,
2009-07-23, 02:05:00,VALID,917.563,VALID,0,VALID,100,VALID,-0.0509425,VALID,19.8595,VALID,29,VALID,0.801669,
2009-07-23, 02:06:00,VALID,917.57,VALID,0,VALID,100,VALID,-0.0849042,VALID,19.8828,VALID,29,VALID,0.775694,
2009-07-23, 02:07:00,VALID,917.584,VALID,0,VALID,100,VALID,-0.101885,VALID,19.8793,VALID,28,VALID,0.384301,
2009-07-23, 02:08:00,VALID,917.583,VALID,0,VALID,100,VALID,-0.0849042,VALID,19.9025,VALID,28,VALID,0.0390625,
2009-07-23, 02:09:00,VALID,917.545,VALID,0,VALID,100,VALID,-0.0679233,VALID,19.9571,VALID,28,VALID,0.216667,
2009-07-23, 02:10:00,VALID,917.535,VALID,0,VALID,100,VALID,-0.0339617,VALID,19.9993,VALID,28,VALID,0.253049,
2009-07-23, 02:11:00,VALID,917.525,VALID,0,VALID,100,VALID,-0.0339617,VALID,20.0253,VALID,28,VALID,0,
2009-07-23, 02:12:00,VALID,917.52,VALID,0,VALID,100,VALID,-0.0849042,VALID,20.0415,VALID,28,VALID,0,
2009-07-23, 02:13:00,VALID,917.515,VALID,0,VALID,100,VALID,-0.0849042,VALID,20.058,VALID,28,VALID,0,
2009-07-23, 02:14:00,VALID,917.523,VALID,0,VALID,100,VALID,-0.0849042,VALID,20.0742,VALID,28,VALID,0,
2009-07-23, 02:15:00,VALID,917.521,VALID,0,VALID,100,VALID,-0.0849042,VALID,20.0742,VALID,28,VALID,0,
2009-07-23, 02:16:00,VALID,917.515,VALID,0,VALID,100,VALID,-0.101885,VALID,20.045,VALID,28,VALID,0,
2009-07-23, 02:17:00,VALID,917.514,VALID,0,VALID,100,VALID,-0.101885,VALID,20.0226,VALID,28,VALID,0.578125,
2009-07-23, 02:18:00,VALID,917.497,VALID,0,VALID,100,VALID,-0.101885,VALID,20.0126,VALID,21,VALID,0.592988,
2009-07-23, 02:19:00,VALID,917.481,VALID,0,VALID,100,VALID,-0.0849042,VALID,20.0423,VALID,17,VALID,0.815163,
2009-07-23, 02:20:00,VALID,917.457,VALID,0,VALID,100,VALID,-0.0679233,VALID,20.0712,VALID,18,VALID,0.509896,
2009-07-23, 02:21:00,VALID,917.435,VALID,0,VALID,100,VALID,-0.0849042,VALID,20.0577,VALID,18,VALID,0.457812,
2009-07-23, 02:22:00,VALID,917.417,VALID,0,VALID,100,VALID,-0.0339617,VALID,20.0513,VALID,18,VALID,0.542302,
2009-07-23, 02:23:00,VALID,917.399,VALID,0,VALID,100,VALID,-0.0849042,VALID,20.0707,VALID,8,VALID,0.506722,
2009-07-23, 02:24:00,VALID,917.394,VALID,0,VALID,100,VALID,-0.0509425,VALID,20.0969,VALID,8,VALID,0.170277,
2009-07-23, 02:25:00,VALID,917.386,VALID,0,VALID,100,VALID,-0.101885,VALID,20.1167,VALID,8,VALID,0,
2009-07-23, 02:26:00,VALID,917.377,VALID,0,VALID,100,VALID,-0.101885,VALID,20.1097,VALID,8,VALID,0,
2009-07-23, 02:27:00,VALID,917.39,VALID,0,VALID,100,VALID,-0.0679233,VALID,20.1129,VALID,8,VALID,0,
2009-07-23, 02:28:00,VALID,917.4,VALID,0,VALID,100,VALID,-0.0679233,VALID,20.1069,VALID,8,VALID,0,
2009-07-23, 02:29:00,VALID,917.373,VALID,0,VALID,100,VALID,-0.101885,VALID,20.0642,VALID,8,VALID,0,
2009-07-23, 02:30:00,VALID,917.352,VALID,0,VALID,100,VALID,-0.118866,VALID,20.0455,VALID,8,VALID,0,
2009-07-23, 02:31:00,VALID,917.321,VALID,0,VALID,100,VALID,-0.101885,VALID,20.032,VALID,8,VALID,0,
2009-07-23, 02:32:00,VALID,917.303,VALID,0,VALID,100,VALID,-0.118866,VALID,20.0161,VALID,8,VALID,0,
2009-07-23, 02:33:00,VALID,917.285,VALID,0,VALID,100,VALID,-0.118866,VALID,20.0126,VALID,8,VALID,0,
2009-07-23, 02:34:00,VALID,917.257,VALID,0,VALID,100,VALID,-0.101885,VALID,20.0128,VALID,8,VALID,0.382431,
2009-07-23, 02:35:00,VALID,917.232,VALID,0,VALID,100,VALID,-0.101885,VALID,20.0193,VALID,8,VALID,0.75327,
2009-07-23, 02:36:00,VALID,917.206,VALID,0,VALID,100,VALID,-0.101885,VALID,20.0158,VALID,12,VALID,0.779978,
2009-07-23, 02:37:00,VALID,917.209,VALID,0,VALID,100,VALID,-0.101885,VALID,20.0093,VALID,16,VALID,0.621701,
2009-07-23, 02:38:00,VALID,917.203,VALID,0,VALID,100,VALID,-0.0679233,VALID,19.9869,VALID,14,VALID,0.540015,
2009-07-23, 02:39:00,VALID,917.198,VALID,0,VALID,100,VALID,-0.0849042,VALID,19.9641,VALID,6,VALID,0.377362,
2009-07-23, 02:40:00,VALID,917.199,VALID,0,VALID,100,VALID,-0.101885,VALID,19.9614,VALID,6,VALID,0.463481,
2009-07-23, 02:41:00,VALID,917.169,VALID,0,VALID,100,VALID,-0.101885,VALID,19.9417,VALID,6,VALID,0.742932,
2009-07-23, 02:42:00,VALID,917.152,VALID,0,VALID,100,VALID,-0.0169808,VALID,19.9239,VALID,9,VALID,0.891768,
2009-07-23, 02:43:00,VALID,917.118,VALID,0,VALID,100,VALID,0,VALID,19.9274,VALID,10,VALID,0.81359,
2009-07-23, 02:44:00,VALID,917.129,VALID,0,VALID,100,VALID,0.0169808,VALID,19.8945,VALID,10,VALID,0.90718,
2009-07-23, 02:45:00,VALID,917.125,VALID,0,VALID,100,VALID,0,VALID,19.8848,VALID,10,VALID,0.675509,
2009-07-23, 02:46:00,VALID,917.13,VALID,0,VALID,100,VALID,0,VALID,19.8882,VALID,10,VALID,0.726042,
2009-07-23, 02:47:00,VALID,917.131,VALID,0,VALID,100,VALID,0,VALID,19.885,VALID,10,VALID,0.321456,
2009-07-23, 02:48:00,VALID,917.117,VALID,0,VALID,100,VALID,0.0339617,VALID,19.8915,VALID,10,VALID,0,
2009-07-23, 02:49:00,VALID,917.115,VALID,0,VALID,100,VALID,0.0169808,VALID,19.8323,VALID,10,VALID,0,
2009-07-23, 02:50:00,VALID,917.107,VALID,0,VALID,100,VALID,0,VALID,19.7742,VALID,10,VALID,0,
2009-07-23, 02:51:00,VALID,917.086,VALID,0,VALID,100,VALID,0,VALID,19.722,VALID,10,VALID,0,
2009-07-23, 02:52:00,VALID,917.091,VALID,0,VALID,100,VALID,0,VALID,19.7485,VALID,10,VALID,0,
2009-07-23, 02:53:00,VALID,917.091,VALID,0,VALID,100,VALID,0,VALID,19.7709,VALID,10,VALID,0,
2009-07-23, 02:54:00,VALID,917.089,VALID,0,VALID,100,VALID,0.0339617,VALID,19.7615,VALID,10,VALID,0,
2009-07-23, 02:55:00,VALID,917.1,VALID,0,VALID,100,VALID,0.0169808,VALID,19.7385,VALID,10,VALID,0,
2009-07-23, 02:56:00,VALID,917.1,VALID,0,VALID,100,VALID,0.0169808,VALID,19.7193,VALID,10,VALID,0,
2009-07-23, 02:57:00,VALID,917.112,VALID,0,VALID,100,VALID,-0.0339617,VALID,19.6808,VALID,10,VALID,0,
2009-07-23, 02:58:00,VALID,917.106,VALID,0,VALID,100,VALID,-0.101885,VALID,19.6559,VALID,10,VALID,0,
2009-07-23, 02:59:00,VALID,917.121,VALID,0,VALID,100,VALID,-0.101885,VALID,19.6753,VALID,10,VALID,0,
2009-07-23, 03:00:00,VALID,917.119,VALID,0,VALID,100,VALID,-0.101885,VALID,19.6813,VALID,1,VALID,0.204985,
2009-07-23, 03:01:00,VALID,917.101,VALID,0,VALID,100,VALID,-0.0849042,VALID,19.704,VALID,359,VALID,0,
2009-07-23, 03:02:00,VALID,917.073,VALID,0,VALID,100,VALID,-0.101885,VALID,19.7143,VALID,359,VALID,0,
2009-07-23, 03:03:00,VALID,917.043,VALID,0,VALID,100,VALID,-0.0849042,VALID,19.6753,VALID,359,VALID,0,
2009-07-23, 03:04:00,VALID,917.024,VALID,0,VALID,100,VALID,-0.0679233,VALID,19.6554,VALID,359,VALID,0,
2009-07-23, 03:05:00,VALID,917.027,VALID,0,VALID,100,VALID,-0.0679233,VALID,19.6524,VALID,359,VALID,0,
2009-07-23, 03:06:00,VALID,917.018,VALID,0,VALID,100,VALID,-0.0849042,VALID,19.6524,VALID,359,VALID,0,
2009-07-23, 03:07:00,VALID,917.017,VALID,0,VALID,100,VALID,-0.0509425,VALID,19.6067,VALID,359,VALID,0,
2009-07-23, 03:08:00,VALID,917.018,VALID,0,VALID,100,VALID,-0.0679233,VALID,19.5548,VALID,359,VALID,0,
2009-07-23, 03:09:00,VALID,916.997,VALID,0,VALID,100,VALID,-0.101885,VALID,19.5326,VALID,359,VALID,0,
2009-07-23, 03:10:00,VALID,916.967,VALID,0,VALID,100,VALID,-0.0849042,VALID,19.5034,VALID,33,VALID,0.397675,
2009-07-23, 03:11:00,VALID,916.97,VALID,0,VALID,100,VALID,-0.0849042,VALID,19.4936,VALID,43,VALID,0.0021609,
2009-07-23, 03:12:00,VALID,916.969,VALID,0,VALID,100,VALID,-0.0339617,VALID,19.5186,VALID,43,VALID,0,
2009-07-23, 03:13:00,VALID,916.984,VALID,0,VALID,100,VALID,0,VALID,19.5438,VALID,43,VALID,0,
2009-07-23, 03:14:00,VALID,916.988,VALID,0,VALID,100,VALID,0.0169808,VALID,19.5501,VALID,43,VALID,0,
2009-07-23, 03:15:00,VALID,916.984,VALID,0,VALID,100,VALID,0.0169808,VALID,19.5857,VALID,43,VALID,0,
2009-07-23, 03:16:00,VALID,917.001,VALID,0,VALID,100,VALID,0,VALID,19.6055,VALID,42,VALID,0,
2009-07-23, 03:17:00,VALID,917.025,VALID,0,VALID,100,VALID,0,VALID,19.6184,VALID,42,VALID,0,
2009-07-23, 03:18:00,VALID,917.032,VALID,0,VALID,100,VALID,0,VALID,19.6382,VALID,42,VALID,0,
2009-07-23, 03:19:00,VALID,917.04,VALID,0,VALID,100,VALID,0,VALID,19.6344,VALID,42,VALID,0,
2009-07-23, 03:20:00,VALID,917.025,VALID,0,VALID,100,VALID,0.0169808,VALID,19.5695,VALID,42,VALID,0,
2009-07-23, 03:21:00,VALID,917.023,VALID,0,VALID,100,VALID,0,VALID,19.6055,VALID,42,VALID,0.316315,
2009-07-23, 03:22:00,VALID,917.025,VALID,0,VALID,100,VALID,0.0169808,VALID,19.5895,VALID,37,VALID,0.716025,
2009-07-23, 03:23:00,VALID,917.006,VALID,0,VALID,100,VALID,-0.0169808,VALID,19.6087,VALID,32,VALID,0.908249,
2009-07-23, 03:24:00,VALID,916.994,VALID,0,VALID,100,VALID,0,VALID,19.7258,VALID,54,VALID,1.00074,
2009-07-23, 03:25:00,VALID,916.969,VALID,0,VALID,100,VALID,0,VALID,19.7807,VALID,47,VALID,0.720656,
2009-07-23, 03:26:00,VALID,916.953,VALID,0,VALID,100,VALID,0,VALID,19.7744,VALID,43,VALID,0.982973,
2009-07-23, 03:27:00,VALID,916.95,VALID,0,VALID,100,VALID,-0.0679233,VALID,19.7198,VALID,27,VALID,0.729936,
2009-07-23, 03:28:00,VALID,916.956,VALID,0,VALID,100,VALID,-0.0849042,VALID,19.6913,VALID,26,VALID,0.648819,
2009-07-23, 03:29:00,VALID,916.95,VALID,0,VALID,100,VALID,-0.0849042,VALID,19.7105,VALID,26,VALID,0.414249,
2009-07-23, 03:30:00,VALID,916.933,VALID,0,VALID,100,VALID,-0.0679233,VALID,19.6783,VALID,26,VALID,0.674137,
2009-07-23, 03:31:00,VALID,916.913,VALID,0,VALID,100,VALID,-0.0849042,VALID,19.6424,VALID,26,VALID,0.45191,
2009-07-23, 03:32:00,VALID,916.918,VALID,0,VALID,100,VALID,-0.0679233,VALID,19.6237,VALID,26,VALID,0.546875,
2009-07-23, 03:33:00,VALID,916.931,VALID,0,VALID,100,VALID,-0.0849042,VALID,19.5847,VALID,26,VALID,0.447311,
2009-07-23, 03:34:00,VALID,916.952,VALID,0,VALID,100,VALID,-0.118866,VALID,19.5817,VALID,26,VALID,0.0272485,
2009-07-23, 03:35:00,VALID,916.961,VALID,0,VALID,100,VALID,-0.0849042,VALID,19.604,VALID,26,VALID,0.0232515,
2009-07-23, 03:36:00,VALID,916.966,VALID,0,VALID,100,VALID,-0.101885,VALID,19.6137,VALID,26,VALID,0.252477,
2009-07-23, 03:37:00,VALID,916.948,VALID,0,VALID,100,VALID,-0.101885,VALID,19.6267,VALID,24,VALID,0.380208,
2009-07-23, 03:38:00,VALID,916.935,VALID,0,VALID,100,VALID,-0.0679233,VALID,19.6292,VALID,20,VALID,0.433093,
2009-07-23, 03:39:00,VALID,916.912,VALID,0,VALID,100,VALID,-0.101885,VALID,19.6267,VALID,20,VALID,0.908067,
2009-07-23, 03:40:00,VALID,916.917,VALID,0,VALID,100,VALID,-0.101885,VALID,19.6656,VALID,21,VALID,1.11484,
2009-07-23, 03:41:00,VALID,916.933,VALID,0,VALID,100,VALID,-0.101885,VALID,19.6851,VALID,21,VALID,1.06141,
2009-07-23, 03:42:00,VALID,916.965,VALID,0,VALID,100,VALID,-0.0339617,VALID,19.6806,VALID,26,VALID,1.02153,
2009-07-23, 03:43:00,VALID,916.984,VALID,0,VALID,100,VALID,0,VALID,19.71,VALID,16,VALID,1.04127,
2009-07-23, 03:44:00,VALID,916.992,VALID,0,VALID,100,VALID,0,VALID,19.7125,VALID,23,VALID,1.19023,
2009-07-23, 03:45:00,VALID,916.973,VALID,0,VALID,100,VALID,0,VALID,19.719,VALID,27,VALID,1.03628,
2009-07-23, 03:46:00,VALID,916.983,VALID,0,VALID,100,VALID,0,VALID,19.735,VALID,26,VALID,0.907227,